| time (UTC) | temp F | wind direction | speed MPH | gust MPH | rain 1hr in | rain 24hr in | rain mn in | humidity % | barometer mb |
| 20260902000437 | 74 | 19 | 1.0 | 8.0 | 0.02 | 0.05 | 0.05 | 91 | 1014.3 |
| 20260901235436 | 76 | 41 | 2.0 | 6.0 | 0.00 | 0.03 | 0.03 | 87 | 1014.1 |
| 20260901233437 | 78 | 25 | 1.0 | 7.0 | 0.00 | 0.03 | 0.03 | 94 | 1014.6 |
| 20260901232436 | 79 | 250 | 0.0 | 0.0 | 0.00 | 0.03 | 0.03 | 95 | 1013.9 |
| 20260901231436 | 80 | 250 | 0.0 | 0.0 | 0.00 | 0.03 | 0.03 | 94 | 1013.3 |
| 20260901225434 | 81 | 250 | 0.0 | 0.0 | 0.00 | 0.03 | 0.03 | 92 | 1013.2 |
| 20260901224434 | 82 | 250 | 0.0 | 0.0 | 0.00 | 0.03 | 0.03 | 90 | 1013.3 |
| 20260901223433 | 82 | 250 | 0.0 | 0.0 | 0.00 | 0.03 | 0.03 | 89 | 1013.5 |
| 20260901222432 | 83 | 250 | 0.0 | 0.0 | 0.00 | 0.03 | 0.03 | 88 | 1013.3 |
| 20260901221431 | 84 | 250 | 0.0 | 0.0 | 0.00 | 0.03 | 0.03 | 86 | 1012.8 |
| 20260901220429 | 85 | 250 | 0.0 | 0.0 | 0.00 | 0.03 | 0.03 | 85 | 1013.2 |
| 20260901215429 | 85 | 250 | 0.0 | 1.0 | 0.00 | 0.03 | 0.03 | 82 | 1013.5 |
| 20260901214424 | 86 | 279 | 1.0 | 3.0 | 0.00 | 0.03 | 0.03 | 81 | 1013.6 |
| 20260901212426 | 87 | 284 | 0.0 | 2.0 | 0.00 | 0.03 | 0.03 | 82 | 1013.2 |
| 20260901210424 | 87 | 262 | 0.0 | 3.0 | 0.00 | 0.03 | 0.03 | 81 | 1013.5 |
| 20260901205425 | 87 | 243 | 0.0 | 5.0 | 0.00 | 0.03 | 0.03 | 81 | 1013.6 |
| 20260901204424 | 88 | 222 | 1.0 | 4.0 | 0.00 | 0.03 | 0.03 | 79 | 1013.7 |
| 20260901203426 | 88 | 247 | 1.0 | 4.0 | 0.00 | 0.03 | 0.03 | 79 | 1013.7 |
| 20260901202426 | 89 | 306 | 0.0 | 5.0 | 0.00 | 0.03 | 0.03 | 79 | 1013.7 |
| 20260901201424 | 88 | 263 | 0.0 | 3.0 | 0.00 | 0.03 | 0.03 | 79 | 1013.6 |
| 20260901200425 | 88 | 243 | 0.0 | 2.0 | 0.00 | 0.03 | 0.03 | 81 | 1013.8 |
| 20260901195426 | 87 | 181 | 0.0 | 3.0 | 0.00 | 0.03 | 0.03 | 82 | 1013.8 |
| 20260901194425 | 86 | 257 | 0.0 | 3.0 | 0.00 | 0.03 | 0.03 | 82 | 1013.9 |
| 20260901193423 | 86 | 281 | 1.0 | 3.0 | 0.00 | 0.03 | 0.03 | 81 | 1013.9 |
| 20260901192423 | 86 | 263 | 0.0 | 4.0 | 0.00 | 0.03 | 0.03 | 84 | 1013.9 |
| 20260901191421 | 85 | 251 | 1.0 | 5.0 | 0.00 | 0.03 | 0.03 | 84 | 1013.9 |
| 20260901185425 | 86 | 209 | 1.0 | 4.0 | 0.00 | 0.03 | 0.03 | 83 | 1014.1 |
| 20260901184420 | 86 | 217 | 1.0 | 7.0 | 0.00 | 0.03 | 0.03 | 83 | 1014.0 |
| 20260901183421 | 85 | 122 | 1.0 | 4.0 | 0.00 | 0.03 | 0.03 | 86 | 1014.0 |
| 20260901182420 | 84 | 191 | 1.0 | 5.0 | 0.00 | 0.03 | 0.03 | 86 | 1014.0 |
| 20260901181421 | 84 | 301 | 1.0 | 4.0 | 0.00 | 0.03 | 0.03 | 87 | 1014.1 |
| 20260901180420 | 83 | 256 | 1.0 | 4.0 | 0.00 | 0.03 | 0.03 | 88 | 1014.3 |
| 20260901175419 | 81 | 200 | 0.0 | 3.0 | 0.00 | 0.03 | 0.03 | 94 | 1014.5 |
| 20260901174418 | 80 | 170 | 0.0 | 2.0 | 0.00 | 0.03 | 0.03 | 95 | 1014.6 |
| 20260901173420 | 80 | 247 | 0.0 | 4.0 | 0.00 | 0.03 | 0.03 | 97 | 1014.9 |
| 20260901172419 | 79 | 184 | 0.0 | 2.0 | 0.01 | 0.03 | 0.03 | 99 | 1015.0 |
| 20260901171418 | 79 | 165 | 0.0 | 0.0 | 0.03 | 0.03 | 0.03 | 98 | 1014.9 |
| 20260901170418 | 79 | 219 | 0.0 | 0.0 | 0.03 | 0.03 | 0.03 | 99 | 1015.0 |
| 20260901165419 | 78 | 137 | 0.0 | 0.0 | 0.03 | 0.03 | 0.03 | 99 | 1015.2 |
| 20260901164421 | 78 | 274 | 0.0 | 0.0 | 0.03 | 0.03 | 0.03 | 98 | 1015.2 |
| 20260901163418 | 79 | 262 | 0.0 | 0.0 | 0.03 | 0.03 | 0.03 | 97 | 1015.6 |
| 20260901162419 | 79 | 262 | 0.0 | 1.0 | 0.02 | 0.02 | 0.02 | 94 | 1015.8 |
| 20260901155417 | 81 | 262 | 0.0 | 0.0 | 0.00 | 0.00 | 0.00 | 91 | 1016.2 |
| 20260901154419 | 81 | 262 | 0.0 | 0.0 | 0.00 | 0.00 | 0.00 | 90 | 1016.3 |
| 20260901153419 | 81 | 262 | 0.0 | 0.0 | 0.00 | 0.00 | 0.00 | 91 | 1016.1 |
| 20260901151413 | 81 | 262 | 0.0 | 2.0 | 0.00 | 0.00 | 0.00 | 91 | 1016.2 |
| 20260901150417 | 81 | 176 | 0.0 | 2.0 | 0.00 | 0.00 | 0.00 | 90 | 1016.1 |
| 20260901145412 | 81 | 238 | 0.0 | 3.0 | 0.00 | 0.00 | 0.00 | 90 | 1016.0 |
| 20260901144412 | 81 | 242 | 0.0 | 2.0 | 0.00 | 0.00 | 0.00 | 92 | 1015.9 |
| 20260901142411 | 78 | 244 | 0.0 | 1.0 | 0.00 | 0.00 | 0.00 | 93 | 1015.9 |
| 20260901141412 | 78 | 236 | 0.0 | 2.0 | 0.00 | 0.00 | 0.00 | 93 | 1015.9 |
| 20260901140410 | 78 | 226 | 0.0 | 1.0 | 0.00 | 0.00 | 0.00 | 94 | 1016.0 |
| 20260901135410 | 78 | 233 | 0.0 | 4.0 | 0.00 | 0.00 | 0.00 | 94 | 1015.8 |
| 20260901134410 | 77 | 220 | 1.0 | 4.0 | 0.00 | 0.00 | 0.00 | 94 | 1016.0 |
| 20260901133408 | 77 | 240 | 0.0 | 0.0 | 0.00 | 0.00 | 0.00 | 95 | 1015.9 |
| 20260901131404 | 75 | 165 | 0.0 | 3.0 | 0.00 | 0.00 | 0.00 | 99 | 1015.9 |
| 20260901130407 | 74 | 252 | 0.0 | 2.0 | 0.00 | 0.00 | 0.00 | 99 | 1016.1 |
| 20260901124406 | 73 | 173 | 0.0 | 1.0 | 0.00 | 0.00 | 0.00 | 100 | 1016.1 |
| 20260901123405 | 73 | 257 | 0.0 | 1.0 | 0.00 | 0.00 | 0.00 | 100 | 1016.2 |
| 20260901122405 | 72 | 169 | 0.0 | 0.0 | 0.00 | 0.00 | 0.00 | 100 | 1016.0 |
| 20260901121406 | 72 | 169 | 0.0 | 0.0 | 0.00 | 0.00 | 0.00 | 100 | 1016.0 |
| 20260901120401 | 72 | 169 | 0.0 | 0.0 | 0.00 | 0.00 | 0.00 | 100 | 1016.1 |
| 20260901115401 | 71 | 169 | 0.0 | 0.0 | 0.00 | 0.00 | 0.00 | 100 | 1016.3 |
| 20260901114403 | 71 | 169 | 0.0 | 0.0 | 0.00 | 0.00 | 0.00 | 100 | 1016.2 |
| 20260901112400 | 71 | 169 | 0.0 | 0.0 | 0.00 | 0.00 | 0.00 | 100 | 1016.2 |
| 20260901111356 | 71 | 169 | 0.0 | 0.0 | 0.00 | 0.00 | 0.00 | 100 | 1016.2 |
| 20260901110357 | 70 | 169 | 0.0 | 0.0 | 0.00 | 0.00 | 0.00 | 100 | 1016.4 |
| 20260901105354 | 70 | 168 | 0.0 | 0.0 | 0.00 | 0.00 | 0.00 | 100 | 1016.3 |
| 20260901101352 | 70 | 197 | 0.0 | 0.0 | 0.00 | 0.00 | 0.00 | 100 | 1016.3 |
| 20260901100352 | 70 | 197 | 0.0 | 0.0 | 0.00 | 0.00 | 0.00 | 100 | 1016.2 |
| 20260901093349 | 70 | 197 | 0.0 | 0.0 | 0.00 | 0.00 | 0.00 | 100 | 1016.2 |
| 20260901092350 | 70 | 197 | 0.0 | 0.0 | 0.00 | 0.00 | 0.00 | 100 | 1016.3 |
| 20260901091348 | 70 | 197 | 0.0 | 0.0 | 0.00 | 0.00 | 0.00 | 100 | 1016.3 |
| 20260901090350 | 70 | 197 | 0.0 | 0.0 | 0.00 | 0.01 | 0.00 | 100 | 1016.4 |
| 20260901085349 | 70 | 197 | 0.0 | 0.0 | 0.00 | 0.01 | 0.00 | 99 | 1016.6 |
| 20260901084349 | 70 | 197 | 0.0 | 0.0 | 0.00 | 0.01 | 0.00 | 99 | 1016.6 |
| 20260901083344 | 70 | 197 | 0.0 | 0.0 | 0.00 | 0.01 | 0.00 | 99 | 1016.6 |
| 20260901082343 | 70 | 197 | 0.0 | 0.0 | 0.00 | 0.01 | 0.00 | 99 | 1016.5 |
| 20260901081343 | 70 | 197 | 0.0 | 0.0 | 0.00 | 0.01 | 0.00 | 99 | 1016.6 |
| 20260901080342 | 70 | 197 | 0.0 | 0.0 | 0.00 | 0.01 | 0.00 | 99 | 1016.6 |
| 20260901075343 | 70 | 197 | 0.0 | 0.0 | 0.00 | 0.01 | 0.00 | 99 | 1016.5 |
| 20260901074342 | 70 | 197 | 0.0 | 0.0 | 0.00 | 0.01 | 0.00 | 99 | 1016.6 |
| 20260901073343 | 70 | 197 | 0.0 | 0.0 | 0.00 | 0.01 | 0.00 | 99 | 1016.6 |
| 20260901070342 | 70 | 196 | 0.0 | 0.0 | 0.00 | 0.01 | 0.00 | 99 | 1016.8 |
| 20260901065341 | 70 | 197 | 0.0 | 0.0 | 0.00 | 0.01 | 0.00 | 99 | 1016.8 |
| 20260901064340 | 70 | 197 | 0.0 | 0.0 | 0.00 | 0.01 | 0.00 | 99 | 1017.1 |
| 20260901063341 | 70 | 197 | 0.0 | 0.0 | 0.00 | 0.01 | 0.00 | 99 | 1017.0 |
| 20260901062340 | 70 | 197 | 0.0 | 0.0 | 0.00 | 0.01 | 0.00 | 99 | 1017.0 |
| 20260901060340 | 70 | 197 | 0.0 | 0.0 | 0.00 | 0.01 | 0.00 | 98 | 1017.3 |
| 20260901055338 | 70 | 197 | 0.0 | 0.0 | 0.00 | 0.01 | 0.00 | 98 | 1017.3 |
| 20260901054336 | 70 | 197 | 0.0 | 0.0 | 0.00 | 0.01 | 0.00 | 98 | 1017.6 |
| 20260901053336 | 70 | 197 | 0.0 | 0.0 | 0.00 | 0.01 | 0.00 | 98 | 1017.5 |
| 20260901052336 | 70 | 196 | 0.0 | 0.0 | 0.00 | 0.01 | 0.00 | 98 | 1017.6 |
| 20260901051337 | 70 | 197 | 0.0 | 0.0 | 0.00 | 0.01 | 0.00 | 98 | 1017.8 |
| 20260901050337 | 70 | 197 | 0.0 | 0.0 | 0.00 | 0.01 | 0.00 | 98 | 1017.8 |
| 20260901044335 | 70 | 197 | 0.0 | 0.0 | 0.00 | 0.01 | 0.00 | 97 | 1017.8 |
| 20260901042330 | 70 | 249 | 0.0 | 2.0 | 0.00 | 0.01 | 0.00 | 97 | 1017.7 |
| 20260901041330 | 70 | 239 | 0.0 | 1.0 | 0.00 | 0.01 | 0.00 | 97 | 1017.8 |
| 20260901035332 | 70 | 255 | 0.0 | 1.0 | 0.00 | 0.01 | 0.01 | 97 | 1018.0 |
| 20260901034331 | 70 | 277 | 0.0 | 2.0 | 0.00 | 0.01 | 0.01 | 97 | 1018.0 |
| 20260901033325 | 70 | 191 | 0.0 | 0.0 | 0.00 | 0.01 | 0.01 | 97 | 1018.2 |
| 20260901032325 | 71 | 183 | 0.0 | 0.0 | 0.00 | 0.01 | 0.01 | 97 | 1018.2 |
| 20260901031331 | 70 | 223 | 0.0 | 0.0 | 0.00 | 0.01 | 0.01 | 97 | 1018.3 |
| 20260901030325 | 70 | 223 | 0.0 | 0.0 | 0.00 | 0.01 | 0.01 | 97 | 1018.4 |
| 20260901024326 | 70 | 223 | 0.0 | 0.0 | 0.00 | 0.01 | 0.01 | 97 | 1018.5 |
| 20260901023325 | 71 | 224 | 0.0 | 0.0 | 0.00 | 0.03 | 0.01 | 97 | 1018.7 |
| 20260901022325 | 71 | 224 | 0.0 | 0.0 | 0.00 | 0.03 | 0.01 | 97 | 1018.7 |
| 20260901021327 | 71 | 224 | 0.0 | 0.0 | 0.00 | 0.03 | 0.01 | 97 | 1018.9 |
| 20260901020320 | 71 | 224 | 0.0 | 0.0 | 0.00 | 0.04 | 0.01 | 97 | 1018.8 |
| 20260901015318 | 71 | 224 | 0.0 | 0.0 | 0.00 | 0.04 | 0.01 | 96 | 1018.6 |
| 20260901014320 | 71 | 224 | 0.0 | 0.0 | 0.00 | 0.04 | 0.01 | 96 | 1018.5 |
| 20260901013319 | 71 | 224 | 0.0 | 0.0 | 0.00 | 0.04 | 0.01 | 96 | 1018.7 |
| 20260901011321 | 71 | 224 | 0.0 | 0.0 | 0.00 | 0.04 | 0.01 | 96 | 1018.8 |
| 20260901010320 | 71 | 223 | 0.0 | 1.0 | 0.00 | 0.04 | 0.01 | 96 | 1018.5 |
| 20260901005319 | 72 | 224 | 0.0 | 0.0 | 0.00 | 0.04 | 0.01 | 96 | 1018.5 |
| 20260901004320 | 72 | 156 | 0.0 | 0.0 | 0.00 | 0.04 | 0.01 | 96 | 1018.6 |
| 20260901003318 | 72 | 156 | 0.0 | 0.0 | 0.00 | 0.04 | 0.01 | 95 | 1018.4 |
| 20260901002316 | 72 | 156 | 0.0 | 0.0 | 0.00 | 0.04 | 0.01 | 94 | 1018.3 |
| 20260901001316 | 72 | 156 | 0.0 | 0.0 | 0.00 | 0.04 | 0.01 | 94 | 1018.3 |